CCA6117 ZUUU-ZBTJ

Flight info

Callsign CCA6117
Flight time N/A
Altitude 35100
Route GURET9W GURET W233 AGULU W81 APIMI W275 NSH G212 TEKIL W85 OMDEK OMDEK1T
Aircraft A320/M-SDE3FGHIRWY/LB1

Departure

Time N/A
Airport Chengdu Shuangliu International Airport (ZUUU)

Arrival

Time 2026-05-07 15:59
Airport Tianjin Binhai International Airport (ZBTJ)
Time Latitude Longitude Altitude Speed Heading
2026-05-07 14:40 33.34368 108.32647 35348 ft 511 kts 19°
2026-05-07 14:40 33.37552 108.34538 35377 ft 511 kts 19°
2026-05-07 14:41 33.43897 108.38322 35362 ft 509 kts 19°
2026-05-07 14:41 33.50242 108.42108 35364 ft 509 kts 19°
2026-05-07 14:42 33.56585 108.45890 35369 ft 509 kts 19°
2026-05-07 14:42 33.62917 108.49661 35378 ft 508 kts 19°
2026-05-07 14:43 33.69247 108.53439 35371 ft 508 kts 19°
2026-05-07 14:43 33.75561 108.57220 35362 ft 506 kts 19°
2026-05-07 14:44 33.81872 108.61010 35389 ft 507 kts 19°
2026-05-07 14:44 33.88189 108.64806 35365 ft 508 kts 19°
2026-05-07 14:45 33.94515 108.68614 35343 ft 508 kts 19°
2026-05-07 14:45 34.00834 108.72419 35324 ft 508 kts 19°
2026-05-07 14:46 34.07157 108.76230 35335 ft 508 kts 18°
2026-05-07 14:46 34.13490 108.80061 35319 ft 509 kts 18°
2026-05-07 14:47 34.19834 108.83864 35325 ft 506 kts 15°
2026-05-07 14:47 34.23113 108.85257 35327 ft 494 kts
2026-05-07 14:47 34.26454 108.86040 35330 ft 484 kts 358°
2026-05-07 14:48 34.33133 108.87123 35358 ft 484 kts 358°
2026-05-07 14:48 34.39814 108.88218 35360 ft 484 kts 358°
2026-05-07 14:49 34.46494 108.89314 35328 ft 484 kts 358°
2026-05-07 14:49 34.53171 108.90411 35348 ft 484 kts 359°
2026-05-07 14:50 34.59852 108.91582 35342 ft 490 kts
2026-05-07 14:50 34.66472 108.93871 35346 ft 496 kts
2026-05-07 14:51 34.73085 108.96274 35346 ft 496 kts
2026-05-07 14:51 34.79698 108.98672 35365 ft 496 kts
2026-05-07 14:52 34.86312 109.01109 35355 ft 497 kts
2026-05-07 14:52 34.92901 109.03724 35357 ft 498 kts 10°
2026-05-07 14:53 34.99482 109.06388 35347 ft 498 kts 10°
2026-05-07 14:53 35.06062 109.09006 35353 ft 497 kts
2026-05-07 14:54 35.12644 109.11599 35359 ft 497 kts
2026-05-07 14:54 35.19232 109.14205 35347 ft 497 kts
2026-05-07 14:55 35.25811 109.16829 35372 ft 498 kts 10°
2026-05-07 14:55 35.32395 109.19458 35368 ft 498 kts 10°
2026-05-07 14:56 35.38990 109.22082 35369 ft 498 kts 10°
2026-05-07 14:56 35.45591 109.24705 35392 ft 499 kts 10°
2026-05-07 14:57 35.52181 109.27341 35379 ft 498 kts 10°
2026-05-07 14:57 35.58769 109.29990 35372 ft 498 kts 10°
2026-05-07 14:58 35.65333 109.32630 35391 ft 497 kts 10°
2026-05-07 14:58 35.71898 109.35276 35378 ft 497 kts 12°
2026-05-07 14:59 35.75089 109.37026 35369 ft 508 kts 22°
2026-05-07 14:59 35.78051 109.39487 35367 ft 519 kts 33°
2026-05-07 14:59 35.80666 109.42605 35359 ft 528 kts 44°
2026-05-07 14:59 35.82898 109.46230 35359 ft 532 kts 49°
2026-05-07 15:00 35.87240 109.53632 35378 ft 532 kts 49°
2026-05-07 15:00 35.91546 109.60976 35366 ft 532 kts 49°
2026-05-07 15:01 35.95879 109.68370 35363 ft 531 kts 49°
2026-05-07 15:01 36.00203 109.75769 35355 ft 531 kts 49°
2026-05-07 15:02 36.04523 109.83178 35375 ft 531 kts 49°
2026-05-07 15:02 36.08842 109.90596 35365 ft 531 kts 49°
2026-05-07 15:03 36.13155 109.98021 35353 ft 531 kts 49°
2026-05-07 15:03 36.17460 110.05458 35352 ft 531 kts 49°
2026-05-07 15:04 36.21758 110.12904 35347 ft 532 kts 49°
2026-05-07 15:04 36.26048 110.20362 35360 ft 532 kts 49°
2026-05-07 15:05 36.30344 110.27835 35341 ft 532 kts 49°
2026-05-07 15:05 36.34634 110.35317 35339 ft 532 kts 49°
2026-05-07 15:06 36.38917 110.42820 35339 ft 533 kts 49°
2026-05-07 15:06 36.43205 110.50339 35362 ft 533 kts 49°
2026-05-07 15:07 36.47489 110.57859 35353 ft 533 kts 49°
2026-05-07 15:07 36.51771 110.65396 35353 ft 534 kts 49°
2026-05-07 15:08 36.56050 110.72948 35348 ft 534 kts 49°
2026-05-07 15:08 36.60324 110.80504 35362 ft 534 kts 49°
2026-05-07 15:09 36.64596 110.88070 35371 ft 534 kts 49°
2026-05-07 15:09 36.68862 110.95646 35370 ft 534 kts 49°
2026-05-07 15:10 36.73412 111.02875 35370 ft 526 kts 41°
2026-05-07 15:10 36.78316 111.09656 35384 ft 526 kts 41°
2026-05-07 15:11 36.83208 111.16437 35382 ft 526 kts 40°
2026-05-07 15:11 36.88112 111.23245 35373 ft 526 kts 41°
2026-05-07 15:12 36.92996 111.30053 35370 ft 526 kts 41°
2026-05-07 15:12 36.97866 111.36871 35369 ft 525 kts 41°
2026-05-07 15:13 37.02702 111.43644 35368 ft 525 kts 41°
2026-05-07 15:13 37.07575 111.50464 35366 ft 525 kts 41°
2026-05-07 15:14 37.12445 111.57294 35386 ft 526 kts 40°
2026-05-07 15:14 37.17301 111.64142 35367 ft 526 kts 40°
2026-05-07 15:15 37.22157 111.71008 35363 ft 526 kts 41°
2026-05-07 15:15 37.26686 111.78308 35363 ft 539 kts 53°
2026-05-07 15:16 37.30174 111.86711 35358 ft 544 kts 56°
2026-05-07 15:16 37.33629 111.95168 35352 ft 544 kts 56°
2026-05-07 15:17 37.37091 112.03634 35354 ft 545 kts 56°
2026-05-07 15:17 37.40558 112.12119 35353 ft 545 kts 56°
2026-05-07 15:18 37.44018 112.20622 35392 ft 546 kts 56°
2026-05-07 15:18 37.47465 112.29155 35377 ft 547 kts 56°
2026-05-07 15:19 37.50908 112.37693 35367 ft 547 kts 56°
2026-05-07 15:19 37.54355 112.46238 35373 ft 547 kts 56°
2026-05-07 15:20 37.57245 112.53408 35364 ft 548 kts 56°
2026-05-07 15:20 37.60688 112.61982 35363 ft 548 kts 56°
2026-05-07 15:21 37.64122 112.70567 35354 ft 548 kts 56°
2026-05-07 15:21 37.67561 112.79155 35356 ft 549 kts 56°
2026-05-07 15:22 37.71000 112.87767 35355 ft 549 kts 56°
2026-05-07 15:22 37.74428 112.96387 35391 ft 550 kts 55°
2026-05-07 15:23 37.77855 113.05033 35378 ft 550 kts 55°
2026-05-07 15:23 37.81284 113.13688 35380 ft 551 kts 55°
2026-05-07 15:24 37.84712 113.22358 35370 ft 551 kts 55°
2026-05-07 15:24 37.88127 113.31051 35396 ft 552 kts 54°
2026-05-07 15:25 37.91512 113.39707 35382 ft 552 kts 54°
2026-05-07 15:25 37.94935 113.48479 35392 ft 552 kts 54°
2026-05-07 15:26 37.98315 113.57142 35371 ft 552 kts 54°
2026-05-07 15:26 38.01701 113.65882 35380 ft 552 kts 54°
2026-05-07 15:27 38.05099 113.74686 35367 ft 552 kts 54°
2026-05-07 15:27 38.08434 113.83367 35305 ft 550 kts 54°
2026-05-07 15:28 38.11809 113.92155 35305 ft 550 kts 54°
2026-05-07 15:28 38.15141 114.00840 35292 ft 550 kts 54°
2026-05-07 15:29 38.18487 114.09595 35329 ft 551 kts 55°
2026-05-07 15:29 38.21826 114.18362 35309 ft 550 kts 54°
2026-05-07 15:30 38.25175 114.27108 35301 ft 550 kts 54°
2026-05-07 15:30 38.28525 114.35862 35302 ft 550 kts 54°
2026-05-07 15:31 38.31843 114.44591 35252 ft 540 kts 56°
2026-05-07 15:31 38.35043 114.53089 35267 ft 527 kts 55°
2026-05-07 15:32 38.38220 114.61490 35267 ft 525 kts 55°
2026-05-07 15:32 38.41393 114.69875 35267 ft 525 kts 55°
2026-05-07 15:33 38.44545 114.78285 35270 ft 526 kts 56°
2026-05-07 15:33 38.47688 114.86717 35273 ft 526 kts 56°
2026-05-07 15:34 38.50834 114.95150 35276 ft 526 kts 56°
2026-05-07 15:34 38.53970 115.03582 35283 ft 526 kts 55°
2026-05-07 15:35 38.57099 115.12024 35312 ft 526 kts 57°
2026-05-07 15:35 38.58397 115.16437 35303 ft 536 kts 68°
2026-05-07 15:35 38.59136 115.21141 35301 ft 544 kts 78°
2026-05-07 15:36 38.59280 115.25996 35296 ft 550 kts 89°
2026-05-07 15:36 38.58822 115.30861 35296 ft 553 kts 100°
2026-05-07 15:36 38.56737 115.40330 35292 ft 554 kts 106°
2026-05-07 15:37 38.54533 115.49766 35279 ft 554 kts 106°
2026-05-07 15:37 38.52389 115.59225 35272 ft 554 kts 101°
2026-05-07 15:38 38.51828 115.64075 35279 ft 551 kts 90°
2026-05-07 15:38 38.51823 115.68944 35281 ft 546 kts 80°
2026-05-07 15:38 38.53384 115.78260 35268 ft 530 kts 62°
2026-05-07 15:39 38.56510 115.86639 35259 ft 520 kts 53°
2026-05-07 15:39 38.59828 115.94861 35288 ft 520 kts 54°
2026-05-07 15:40 38.61472 115.98969 35160 ft 519 kts 54°
2026-05-07 15:40 38.63087 116.03112 34019 ft 527 kts 58°
2026-05-07 15:40 38.64345 116.07589 32697 ft 540 kts 69°
2026-05-07 15:40 38.65080 116.12303 31635 ft 542 kts 77°
2026-05-07 15:41 38.65295 116.17115 30575 ft 542 kts 86°
2026-05-07 15:41 38.65192 116.21910 29283 ft 535 kts 87°
2026-05-07 15:41 38.65072 116.26599 27166 ft 524 kts 86°
2026-05-07 15:41 38.64947 116.31255 25134 ft 519 kts 86°
2026-05-07 15:42 38.64980 116.35740 24237 ft 485 kts 78°
2026-05-07 15:42 38.65410 116.39911 23668 ft 464 kts 71°
2026-05-07 15:42 38.66177 116.43813 22781 ft 453 kts 65°
2026-05-07 15:42 38.67080 116.47636 22013 ft 446 kts 66°
2026-05-07 15:43 38.67969 116.51401 21271 ft 439 kts 66°
2026-05-07 15:43 38.68847 116.55117 20541 ft 433 kts 66°
2026-05-07 15:43 38.69711 116.58786 19854 ft 428 kts 67°
2026-05-07 15:43 38.70564 116.62410 19161 ft 423 kts 68°
2026-05-07 15:44 38.71406 116.66004 18500 ft 418 kts 68°
2026-05-07 15:44 38.72231 116.69554 17812 ft 413 kts 68°
2026-05-07 15:44 38.73040 116.73054 17211 ft 407 kts 69°
2026-05-07 15:44 38.73831 116.76499 16637 ft 400 kts 69°
2026-05-07 15:45 38.74604 116.79889 16072 ft 394 kts 69°
2026-05-07 15:45 38.75366 116.83236 15516 ft 388 kts 69°
2026-05-07 15:45 38.76118 116.86534 14966 ft 383 kts 69°
2026-05-07 15:45 38.76861 116.89784 14401 ft 378 kts 69°
2026-05-07 15:46 38.78296 116.96196 13162 ft 372 kts 73°
2026-05-07 15:46 38.78632 116.99483 12532 ft 373 kts 83°
2026-05-07 15:46 38.78504 117.02798 11868 ft 374 kts 94°
2026-05-07 15:47 38.77916 117.06049 11222 ft 375 kts 105°
2026-05-07 15:47 38.76959 117.09090 11052 ft 359 kts 109°
2026-05-07 15:47 38.76015 117.11972 10928 ft 342 kts 109°
2026-05-07 15:47 38.75121 117.14725 10803 ft 327 kts 108°
2026-05-07 15:48 38.74270 117.17364 10658 ft 315 kts 108°
2026-05-07 15:48 38.73525 117.19962 10395 ft 305 kts 99°
2026-05-07 15:48 38.73181 117.22596 10327 ft 298 kts 88°
2026-05-07 15:48 38.73222 117.25214 10209 ft 292 kts 78°
2026-05-07 15:49 38.73459 117.27793 10080 ft 291 kts 78°
2026-05-07 15:49 38.73690 117.30365 9770 ft 293 kts 78°
2026-05-07 15:49 38.73922 117.32974 9275 ft 293 kts 78°
2026-05-07 15:49 38.74147 117.35546 8830 ft 288 kts 78°
2026-05-07 15:50 38.74367 117.38082 8061 ft 285 kts 79°
2026-05-07 15:50 38.74607 117.40579 7459 ft 279 kts 73°
2026-05-07 15:50 38.75317 117.42828 6932 ft 269 kts 52°
2026-05-07 15:50 38.76571 117.44538 6416 ft 261 kts 32°
2026-05-07 15:51 38.78174 117.45555 5923 ft 257 kts 13°
2026-05-07 15:51 38.79938 117.45890 5426 ft 258 kts
2026-05-07 15:51 38.81705 117.46103 4936 ft 259 kts
2026-05-07 15:51 38.83502 117.46325 4434 ft 260 kts
2026-05-07 15:52 38.85295 117.46550 4130 ft 253 kts
2026-05-07 15:52 38.86987 117.46767 4071 ft 236 kts
2026-05-07 15:52 38.88573 117.46973 3999 ft 223 kts
2026-05-07 15:52 38.90074 117.47165 3909 ft 211 kts
2026-05-07 15:53 38.91500 117.47344 3818 ft 201 kts
2026-05-07 15:53 38.92844 117.47514 3756 ft 185 kts
2026-05-07 15:53 38.94039 117.47671 3666 ft 158 kts 360°
2026-05-07 15:53 38.95053 117.47776 3545 ft 137 kts 349°
2026-05-07 15:54 38.95905 117.47415 3381 ft 127 kts 327°
2026-05-07 15:54 38.96694 117.46935 3213 ft 126 kts 327°
2026-05-07 15:54 38.97482 117.46454 3052 ft 125 kts 326°
2026-05-07 15:54 38.98267 117.45976 2886 ft 124 kts 327°
2026-05-07 15:55 38.99047 117.45500 2721 ft 124 kts 326°
2026-05-07 15:55 38.99826 117.45025 2555 ft 124 kts 326°
2026-05-07 15:55 39.00603 117.44550 2388 ft 123 kts 326°
2026-05-07 15:55 39.01377 117.44078 2223 ft 122 kts 325°
2026-05-07 15:56 39.02143 117.43610 2062 ft 122 kts 324°
2026-05-07 15:56 39.02906 117.43144 1893 ft 121 kts 324°
2026-05-07 15:56 39.03666 117.42679 1742 ft 121 kts 323°
2026-05-07 15:56 39.04423 117.42216 1577 ft 120 kts 323°
2026-05-07 15:57 39.05180 117.41753 1419 ft 121 kts 323°
2026-05-07 15:57 39.05940 117.41289 1258 ft 121 kts 324°
2026-05-07 15:57 39.06709 117.40818 1093 ft 123 kts 326°
2026-05-07 15:57 39.07470 117.40353 935 ft 123 kts 327°
2026-05-07 15:58 39.08254 117.39872 762 ft 124 kts 329°
2026-05-07 15:58 39.09040 117.39392 599 ft 126 kts 330°
2026-05-07 15:58 39.09822 117.38913 431 ft 127 kts 331°
2026-05-07 15:58 39.10617 117.38426 266 ft 126 kts 332°
2026-05-07 15:59 39.11405 117.37939 108 ft 126 kts 331°
2026-05-07 15:59 39.12191 117.37478 22 ft 124 kts 330°
2026-05-07 15:59 39.12770 117.37083 19 ft 52 kts 337°
2026-05-07 15:59 39.12917 117.36969 22 ft 17 kts 291°
2026-05-07 16:00 39.12985 117.36867 22 ft 17 kts 308°
2026-05-07 16:00 39.12985 117.36755 20 ft 15 kts 210°
2026-05-07 16:00 39.12899 117.36791 19 ft 12 kts 155°
2026-05-07 16:00 39.12825 117.36836 19 ft 12 kts 155°
2026-05-07 16:01 39.12751 117.36865 21 ft 11 kts 189°
2026-05-07 16:01 39.12708 117.36790 21 ft 12 kts 245°
2026-05-07 16:01 39.12665 117.36677 19 ft 16 kts 244°
2026-05-07 16:01 39.12612 117.36533 19 ft 20 kts 244°
2026-05-07 16:02 39.12548 117.36362 19 ft 23 kts 244°
2026-05-07 16:02 39.12475 117.36166 19 ft 26 kts 244°
2026-05-07 16:02 39.12395 117.35949 19 ft 23 kts 244°
2026-05-07 16:02 39.12357 117.35849 19 ft 20 kts 244°
2026-05-07 16:03 39.12307 117.35713 19 ft 13 kts 251°
2026-05-07 16:03 39.12347 117.35649 20 ft 10 kts 334°
2026-05-07 16:03 39.12412 117.35626 21 ft 10 kts
2026-05-07 16:03 39.12477 117.35634 20 ft 9 kts
2026-05-07 16:04 39.12540 117.35638 19 ft 9 kts
2026-05-07 16:04 39.12621 117.35641 19 ft 8 kts 358°
2026-05-07 16:04 39.12640 117.35637 19 ft 4 kts 348°
2026-05-07 16:04 39.12665 117.35626 20 ft 4 kts 342°
2026-05-07 16:05 39.12687 117.35631 19 ft 3 kts 41°
2026-05-07 16:05 39.12698 117.35650 19 ft 3 kts 60°
2026-05-07 16:05 39.12707 117.35673 19 ft 3 kts 64°
2026-05-07 16:05 39.12713 117.35689 21 ft 1 kts 64°
2026-05-07 16:06 39.12713 117.35690 21 ft 0 kts 64°